PROGRESS-MS 11 (44110 NORAD) Tracking and Keplerian Element Data

This shows tracking and keplerian element data for the satellite.

Feedback or suggestion? Click here.




ElementValue
Catalog44110
NamePROGRESS-MS 11
Epoch Orbit1538
Epoch Day193.51404096
Epoch Year2019
RAAN235.6139
Inclination51.6428
Eccentricity0.0007307
Argument of Perigee132.9259
Mean Anonmoly8.8398
Mean Motion15.50974721
Decay Rate1.154E-05
L11 44110U 19019A 19193.51404096 .00001154 00000-0 27375-4 0 9991
L22 44110 51.6428 235.6139 0007307 132.9259 8.8398 15.50974721 15389

Live tracking and technical data element details for PROGRESS-MS 11 (NORAD 44110). PROGRESS-MS 11 can be tracked NOW for your location showing map with azimuth and elevation plus other details from your city location.

Track the satellite on the map from your city or location and see movement details for azimuth, elevation, latitude, longitude, range, height, and movement on the map or in text.







IsCatalogInMostPopularTable: catalog: 44110, numindb: 17
Update: records affected: 1



GetName: 44110 PROGRESS-MS 11

Hit Count: updated at: Tue, 16 Jul 2019 20:37:17 GMT